DW1564 Weather Reports


time (UTC)temp
C
wind
direction
speed
KPH
gust
KPH
rain 1hr
cm
rain 24hr
cm
rain mn
cm
humidity
%
barometer
mb
20260505053019 2 163 0.0 0.0 0.03 0.20 0.18 89 1001.5
20260505051601 2 163 0.0 0.0 0.00 0.18 0.15 90 1001.9
20260505041521 2 163 1.6 8.0 0.03 0.18 0.15 88 1001.6
20260505040019 2 163 0.0 0.0 0.00 0.15 0.13 88 1002.4
20260505034559 2 163 0.0 0.0 0.00 0.15 0.13 88 1002.1
20260505033058 2 163 0.0 0.0 0.03 0.15 0.13 88 1002.0
20260505031640 2 163 0.0 1.6 0.03 0.15 0.13 87 1001.8
20260505030036 3 163 0.0 9.7 0.03 0.15 0.13 86 1001.3
20260505024533 3 165 0.0 4.8 0.05 0.15 0.13 86 1001.2
20260505023014 3 165 0.0 0.0 0.03 0.13 0.10 87 1000.8
20260505021612 3 165 0.0 8.0 0.03 0.13 0.10 87 1000.1
20260505020056 3 165 0.0 6.4 0.03 0.13 0.10 87 999.8
20260505014538 3 165 0.0 22.5 0.03 0.10 0.08 87 999.7
20260505013036 3 148 0.0 14.5 0.03 0.10 0.08 86 999.6
20260505011519 3 143 0.0 9.7 0.03 0.10 0.08 86 1000.2
20260505010018 4 143 0.0 4.8 0.05 0.10 0.08 87 999.8
20260505004617 3 143 0.0 14.5 0.03 0.08 0.05 87 999.7
20260505003058 3 133 4.8 14.5 0.03 0.08 0.05 88 999.6
20260505001555 3 126 1.6 8.0 0.05 0.08 0.05 86 1000.1
20260505000034 3 126 0.0 0.0 0.03 0.05 0.03 85 1000.6
20260504234530 4 126 0.0 1.6 0.05 0.05 0.03 81 1000.1
20260504233008 5 126 0.0 0.0 0.05 0.05 0.03 80 999.6
20260504231506 5 126 0.0 0.0 0.03 0.03 0.03 79 999.0
20260504230052 5 126 0.0 0.0 0.03 0.03 0.03 77 999.0
20260504224549 6 126 0.0 0.0 0.00 0.00 0.00 70 998.7
20260504223053 8 126 0.0 0.0 0.00 0.00 0.00 63 998.5
20260504221548 11 126 0.0 3.2 0.00 0.00 0.00 54 998.4
20260504214544 12 126 0.0 6.4 0.00 0.00 0.00 40 997.9
20260504213045 12 126 0.0 3.2 0.00 0.00 0.00 40 998.1
20260504211541 12 126 0.0 6.4 0.00 0.00 0.00 39 997.9
20260504210037 13 126 0.0 8.0 0.00 0.00 0.00 36 998.3
20260504204553 13 126 0.0 11.3 0.00 0.00 0.00 37 998.2
20260504203018 13 132 0.0 14.5 0.00 0.00 0.00 41 998.6
20260504201516 12 153 1.6 11.3 0.00 0.00 0.00 44 998.9
20260504200111 11 175 0.0 6.4 0.00 0.00 0.00 44 999.2
20260504194557 11 173 0.0 3.2 0.00 0.00 0.00 43 999.2
20260504193038 11 173 0.0 3.2 0.00 0.00 0.00 41 999.2
20260504191540 11 173 1.6 8.0 0.00 0.00 0.00 41 999.1
20260504190019 11 175 1.6 6.4 0.00 0.00 0.00 38 999.2
20260504184523 13 175 0.0 4.8 0.00 0.00 0.00 35 999.2
20260504183002 13 175 1.6 8.0 0.00 0.00 0.00 38 999.0
20260504181609 11 178 0.0 16.1 0.00 0.00 0.00 33 999.4
20260504180040 11 152 1.6 12.9 0.00 0.00 0.00 31 999.6
20260504174539 12 149 0.0 4.8 0.00 0.00 0.00 29 999.7
20260504173021 13 149 0.0 6.4 0.00 0.00 0.00 29 999.9
20260504171521 13 149 0.0 1.6 0.00 0.00 0.00 26 999.8
20260504170104 13 150 1.6 8.0 0.00 0.00 0.00 27 999.8
20260504081523 6 355 0.0 4.8 0.00 0.00 0.00 37 1002.5